Location: Killam
(52.7910°N, 111.8608°W)
Time: 20:27:07
(UTC+00:00)

Vanguard 2 Rocket - Pass Details

Date: 25 February 2026
Orbit: 553 x 3287 km, 32.9° (Epoch: 6 March)

Event Time Altitude Azimuth Distance (km) Brightness Sun altitude
Rises 18:40:59 0° 236° (SW) 7,037 11.6 27.0°
Reaches altitude 10° 18:46:07 10° 229° (SW) 6,164 11.6 27.3°
Maximum altitude 19:03:02 37° 172° (S) 4,219 12.8 27.8°
Drops below altitude 10° 19:17:16 10° 113° (ESE) 5,226 11.2 28.1°
Sets 19:21:09 0° 106° (ESE) 5,903 11.3 28.2°
